Powrót do katalogu

STARLINK-1446

AktywnyŁącznośćVLEO
NORAD 45663·PAYLOAD·🇺🇸 United States

Wystrzelony Jun 4, 2020 z Cape Canaveral Space Force Station

Loading…

Następne Przeloty (najbliższe 24 godziny)

TLE

ŚwieżeSource: CelesTrak SupGP

Epoka: Sep 14, 2026, 22:10 UTC

1 45663C 20035G   26257.92409722 -.00005084  00000+0 -78744-4 0  2570
2 45663  53.0178 173.5737 0004012 117.2375 244.9922 15.53413832    14

Śledź STARLINK-1446 w czasie rzeczywistym z AllMySat

Download on the App Store